If you wish to contribute or participate in the discussions about articles you are invited to join SKYbrary as a registered user

 Actions

Pond Inlet Airport

From SKYbrary Wiki

CYIO
Airport
ICAO: CYIO
Summary
Name Pond Inlet Airport
Region North America
Territory Canada CA.gif
Location Pond Inlet, Nunavut
Serving
Coordinates 72° 42' 0.42" N, 77° 57' 30.71" W
Runways
Designator Length Width Surface ROPS
02T/20T 1219 m3,999.344 ft
30 m98.425 ft
GVL /


METAR
Observation CYIO 220200Z AUTO 15008KT 9SM CLR M24/M26 A3002 RMK SLP177
Station Pond Inlet, N. W. T.
Date/Time 22 November 2019 02:00:00
Wind direction 150°
Wind speed 08 kts
Lowest cloud amount n/a
Temperature
Dew point
Humidity 83%
QNH hPa
Weather condition n/a

BS
Tag(s) Non Avian Wildlife Hazards to Aircraft
CFIT
Tag(s) Altimeter Temperature Error Correction
GND
Tag(s) Aircraft Ground De/Anti Icing
WX
Tag(s) Fog

Pond Inlet Airport

ICAO: CYIO IATA: YIO

Description

Airport serving Pond Inlet, Nunavut, Canada, operated by the government of Nunavut

Climatology

Tundra climate (Köppen climate classification ET) - warmest month has an average temperature of 0 - 10 degrees C.

Maps

Terrain

Loading map...

Airport Layout

Loading map...


Accidents & Serious Incidents at or in vicinity of CYIO

None on SKYbrary